STARLINK-1934, 46792

Orbit data source: Space-Track

STARLINK-1934, 46792 is a payload satellite owned by SpaceX/Seattle (US) in LEO that was launched on Sat, 24 Oct 2020 UTC via an FALCON 9 launch vehicle from the Air Force Eastern Test Range (AFETR). Payload-class satellites include a variety of spacecraft equipped with specific instruments for various scientific and technological missions. These include communications satellites like Starlink; space stations such as the ISS; scientific satellites like the Hubble; Earth observation satellites from companies like Planet Labs, Umbra, and HawkEye 360; GPS; miniature CubeSats for education and research; and military/defense satellites.

Loading next visibility...
Identifier
46792, 2020-074BF
Orbit
LEO
Last TLE update
16 hours ago
Origin
Manufacturer
SpaceX/Seattle
Mission
Operational Commercial Communications
Bus & Motor
STARLINK, Unknown motor
Mass
260 kg wet, ~248 kg dry
Launch date (UTC)
2020-10-24 (5 years ago)
Launch vehicle
FALCON 9
Launch site
Air Force Eastern Test Range (AFETR)
Object type
Payload
Rocket body
Debris
Shape & HBR
Box + 1 Pan, 8.86 m
Radar Cross Section
13.562 m², Large (>1 m²)

Expand to show TLE details & history

TLE from 16 hours ago
0 STARLINK-1934
1 46792U 20074BF  25189.66029764 -.00000626  00000-0 -23135-4 0  9990
2 46792  53.0562 327.1096 0001304  81.8445 278.2691 15.06389503260033
Epoch: 2025-07-08T15:50Z
TLE epoch observation values (Epoch: 2025-07-08T15:50:49.716Z)
Latitude
-0.00007°
Longitude
162.5503°
Altitude
547.993 km
Speed
7.589 km/s
True Right ascension
21h 48m 26s
True Declination
0° 00' 00"
Sunlit
Object was in full shadow at epoch
Visualization orbit readout
Latitude
25.22682°
Longitude
-179.82348°
Altitude
547.683 km
Speed
7.592 km/s
Apparent Right ascension
02h 23m 30s
Apparent Declination
-14° 39' 12"
Sunlit
Object is in daylight
Visualization observer readout
Local Sidereal Time
20:04:18
Azimuth
98.382° ESE
Elevation
-12.969°
Doppler factor
1
Orbital elements
Apogee altitude
548.417 km
Perigee altitude
546.611 km
Semi-major axis
6,925.651 km
Eccentricity
0.00013
Inclination
53.0562°
RAAN
327.1096°
Arg. of periapsis
81.8445°
True anomaly
Unknown
Mean anomaly
278.2691°
Eccentric anomaly
Unknown
Mean motion
3.76576 °/min
Orbital period
95.6 mins
BSTAR
-0.000023135
Loading maneuver chart data...
Loading SW <> Apogee altitude chart data...

STARLINK-1934 Visibility forecast

Observer location: undefined°, undefined°

Span
Click to sort rows by Start time (UTC) header in descending order
Start Az.
Max El. time (UTC)
Max El. Az.
Max El.
End time (UTC)
End Az.
6 mins2025-07-09 11:06:43.701Z190.288° SSW2025-07-09 11:09:43.701Z128.438° SE28.499°2025-07-09 11:12:43.701Z71.499° E
6 mins2025-07-09 12:46:43.701Z270.933° WNW2025-07-09 12:48:43.701Z315.206° NNW30.904°2025-07-09 12:52:43.701Z36.815° NE
6 mins2025-07-09 17:48:43.701Z335.704° NNW2025-07-09 17:50:43.701Z23.952° NE31.213°2025-07-09 17:54:43.701Z100.437° ESE
6 mins2025-07-09 19:27:43.701Z284.677° WNW2025-07-09 19:30:43.701Z217.511° SW28.231°2025-07-09 19:33:43.701Z166.176° S
|